Time,TemperatureF,DewpointF,PressureIn,WindDirection,WindDirectionDegrees,WindSpeedMPH,WindSpeedGustMPH,Humidity,HourlyPrecipIn,Conditions,Clouds,dailyrainin,SoftwareType,DateUTC
2013-10-02 00:01:00,49.9,-4.6,30.13,SW,225,0.4,3.1,5,0.00,,,0.00,WUHU216HW,2013-10-02 07:01:00,
2013-10-02 00:06:00,49.9,-4.6,30.13,SSE,158,1.1,1.3,5,0.00,,,0.00,WUHU216HW,2013-10-02 07:06:00,
2013-10-02 00:11:00,49.7,-4.8,30.13,SSW,203,0.9,1.1,5,0.00,,,0.00,WUHU216HW,2013-10-02 07:11:00,
2013-10-02 00:16:00,49.7,-4.8,30.13,SW,225,1.6,3.1,5,0.00,,,0.00,WUHU216HW,2013-10-02 07:16:00,
2013-10-02 00:21:00,49.7,-4.8,30.13,SSW,203,0.7,3.1,5,0.00,,,0.00,WUHU216HW,2013-10-02 07:21:00,
2013-10-02 00:26:00,49.7,-4.8,30.13,SSW,203,0.4,2.0,5,0.00,,,0.00,WUHU216HW,2013-10-02 07:26:00,
2013-10-02 00:31:00,49.7,-4.8,30.13,SW,225,1.3,5.1,5,0.00,,,0.00,WUHU216HW,2013-10-02 07:31:00,
2013-10-02 00:35:00,49.5,-4.8,30.13,WSW,248,1.6,5.1,5,0.00,,,0.00,WUHU216HW,2013-10-02 07:35:00,
2013-10-02 00:41:00,49.5,-4.8,30.13,SW,225,0.7,2.2,4,0.00,,,0.00,WUHU216HW,2013-10-02 07:41:00,
2013-10-02 00:45:00,49.7,-4.8,30.13,ENE,68,1.1,3.1,5,0.00,,,0.00,WUHU216HW,2013-10-02 07:45:00,
2013-10-02 00:50:00,49.5,-4.8,30.14,SW,225,0.4,3.1,5,0.00,,,0.00,WUHU216HW,2013-10-02 07:50:00,
2013-10-02 00:55:00,49.5,-4.8,30.13,SSW,203,1.6,3.4,5,0.00,,,0.00,WUHU216HW,2013-10-02 07:55:00,
2013-10-02 01:00:00,49.5,-4.8,30.13,West,270,0.4,3.4,5,0.00,,,0.00,WUHU216HW,2013-10-02 08:00:00,
2013-10-02 01:05:00,49.5,-4.8,30.14,SSW,203,0.7,4.7,5,0.00,,,0.00,WUHU216HW,2013-10-02 08:05:00,
2013-10-02 01:10:00,49.5,-4.8,30.14,SSW,203,2.2,4.7,5,0.00,,,0.00,WUHU216HW,2013-10-02 08:10:00,
2013-10-02 01:15:00,49.5,-4.8,30.13,SSW,203,0.9,4.9,5,0.00,,,0.00,WUHU216HW,2013-10-02 08:15:00,
2013-10-02 01:20:00,49.3,-5.0,30.13,SSE,158,0.9,4.9,5,0.00,,,0.00,WUHU216HW,2013-10-02 08:20:00,
2013-10-02 01:25:00,49.3,-5.0,30.13,South,180,0.4,2.2,5,0.00,,,0.00,WUHU216HW,2013-10-02 08:25:00,
2013-10-02 01:30:00,49.3,-5.0,30.13,SSE,158,0.7,1.8,5,0.00,,,0.00,WUHU216HW,2013-10-02 08:30:00,
2013-10-02 01:35:00,49.3,-5.0,30.13,South,180,1.1,2.2,3,0.00,,,0.00,WUHU216HW,2013-10-02 08:35:00,
2013-10-02 01:40:00,49.3,-5.0,30.13,SW,225,0.4,2.2,3,0.00,,,0.00,WUHU216HW,2013-10-02 08:40:00,
2013-10-02 01:45:00,49.3,-5.0,30.13,West,270,1.1,1.8,3,0.00,,,0.00,WUHU216HW,2013-10-02 08:45:00,
2013-10-02 01:50:00,49.3,-5.0,30.13,SW,225,1.8,2.9,5,0.00,,,0.00,WUHU216HW,2013-10-02 08:50:00,
2013-10-02 01:55:00,49.3,-5.0,30.13,SW,225,0.4,2.9,4,0.00,,,0.00,WUHU216HW,2013-10-02 08:55:00,
2013-10-02 02:00:00,49.3,-5.0,30.13,ESE,113,1.3,4.0,3,0.00,,,0.00,WUHU216HW,2013-10-02 09:00:00,
2013-10-02 02:05:00,49.3,-5.0,30.13,SE,135,1.3,4.0,3,0.00,,,0.00,WUHU216HW,2013-10-02 09:05:00,
2013-10-02 02:10:00,49.3,-5.0,30.13,WSW,248,1.8,4.9,2,0.00,,,0.00,WUHU216HW,2013-10-02 09:10:00,
2013-10-02 02:15:00,49.3,-5.0,30.13,SW,225,2.0,4.9,2,0.00,,,0.00,WUHU216HW,2013-10-02 09:15:00,
2013-10-02 02:20:00,49.3,-5.0,30.13,SW,225,1.1,3.6,1,0.00,,,0.00,WUHU216HW,2013-10-02 09:20:00,
2013-10-02 02:25:00,49.5,-4.8,30.13,SSE,158,0.0,2.9,1,0.00,,,0.00,WUHU216HW,2013-10-02 09:25:00,
2013-10-02 02:30:00,49.5,-4.8,30.13,SW,225,1.8,2.2,1,0.00,,,0.00,WUHU216HW,2013-10-02 09:30:00,
2013-10-02 02:35:00,49.3,-5.0,30.13,South,180,0.2,4.0,1,0.00,,,0.00,WUHU216HW,2013-10-02 09:35:00,
2013-10-02 02:40:00,49.3,-5.0,30.13,SSW,203,0.0,4.0,1,0.00,,,0.00,WUHU216HW,2013-10-02 09:40:00,
2013-10-02 02:45:00,49.3,-5.0,30.13,SW,225,0.9,1.1,1,0.00,,,0.00,WUHU216HW,2013-10-02 09:45:00,
2013-10-02 02:50:00,49.3,-5.0,30.13,South,180,1.6,2.5,1,0.00,,,0.00,WUHU216HW,2013-10-02 09:50:00,
2013-10-02 02:55:00,49.3,-5.0,30.13,WSW,248,0.4,2.5,1,0.00,,,0.00,WUHU216HW,2013-10-02 09:55:00,
2013-10-02 03:00:00,49.3,-5.0,30.13,SW,225,0.2,1.6,2,0.00,,,0.00,WUHU216HW,2013-10-02 10:00:00,
2013-10-02 03:05:00,49.3,-5.0,30.13,SW,225,1.8,1.8,1,0.00,,,0.00,WUHU216HW,2013-10-02 10:05:00,
2013-10-02 03:10:00,49.3,-5.0,30.13,SSW,203,0.9,1.8,1,0.00,,,0.00,WUHU216HW,2013-10-02 10:10:00,
2013-10-02 03:15:00,49.3,-5.0,30.13,SSW,203,0.4,3.1,1,0.00,,,0.00,WUHU216HW,2013-10-02 10:15:00,
2013-10-02 03:20:00,49.3,-5.0,30.13,SW,225,0.2,4.7,1,0.00,,,0.00,WUHU216HW,2013-10-02 10:20:00,
2013-10-02 03:25:00,49.3,-5.0,30.12,South,180,0.9,4.7,1,0.00,,,0.00,WUHU216HW,2013-10-02 10:25:00,
2013-10-02 03:30:00,49.3,-5.0,30.12,ESE,113,0.4,3.1,1,0.00,,,0.00,WUHU216HW,2013-10-02 10:30:00,
2013-10-02 03:35:00,49.5,-4.8,30.12,WSW,248,1.8,1.8,1,0.00,,,0.00,WUHU216HW,2013-10-02 10:35:00,
2013-10-02 03:40:00,49.5,-4.8,30.12,SW,225,0.7,3.4,1,0.00,,,0.00,WUHU216HW,2013-10-02 10:40:00,
2013-10-02 03:45:00,49.5,-4.8,30.12,WSW,248,1.6,3.4,1,0.00,,,0.00,WUHU216HW,2013-10-02 10:45:00,
2013-10-02 03:50:00,49.5,-4.8,30.11,ESE,113,0.9,3.4,1,0.00,,,0.00,WUHU216HW,2013-10-02 10:50:00,
2013-10-02 03:55:00,49.7,-4.8,30.11,WSW,248,0.9,3.4,1,0.00,,,0.00,WUHU216HW,2013-10-02 10:55:00,
2013-10-02 04:00:00,49.7,-4.8,30.11,SW,225,0.4,1.8,1,0.00,,,0.00,WUHU216HW,2013-10-02 11:00:00,
2013-10-02 04:05:00,49.7,-4.8,30.11,West,270,1.8,2.2,1,0.00,,,0.00,WUHU216HW,2013-10-02 11:05:00,
2013-10-02 04:10:00,49.7,-4.8,30.11,WSW,248,3.4,3.6,2,0.00,,,0.00,WUHU216HW,2013-10-02 11:10:00,
2013-10-02 04:15:00,49.7,-4.8,30.11,SSW,203,1.1,3.6,2,0.00,,,0.00,WUHU216HW,2013-10-02 11:15:00,
2013-10-02 04:20:00,49.7,-4.8,30.11,SW,225,1.1,3.4,2,0.00,,,0.00,WUHU216HW,2013-10-02 11:20:00,
2013-10-02 04:25:00,49.5,-4.8,30.11,SSW,203,0.9,3.4,3,0.00,,,0.00,WUHU216HW,2013-10-02 11:25:00,
2013-10-02 04:30:00,49.5,-4.8,30.11,SW,225,0.4,2.5,3,0.00,,,0.00,WUHU216HW,2013-10-02 11:30:00,
2013-10-02 04:35:00,49.5,-4.8,30.11,SW,225,1.1,2.5,3,0.00,,,0.00,WUHU216HW,2013-10-02 11:35:00,
2013-10-02 04:40:00,49.5,-4.8,30.11,WSW,248,0.7,1.8,3,0.00,,,0.00,WUHU216HW,2013-10-02 11:40:00,
2013-10-02 04:45:00,49.5,-4.8,30.11,SW,225,0.9,1.8,3,0.00,,,0.00,WUHU216HW,2013-10-02 11:45:00,
2013-10-02 04:50:00,49.5,-4.8,30.11,SW,225,0.7,1.8,5,0.00,,,0.00,WUHU216HW,2013-10-02 11:50:00,
2013-10-02 04:55:00,49.5,-4.8,30.11,SSE,158,0.4,2.5,5,0.00,,,0.00,WUHU216HW,2013-10-02 11:55:00,
2013-10-02 05:00:00,49.5,-4.8,30.11,SW,225,0.7,2.5,5,0.00,,,0.00,WUHU216HW,2013-10-02 12:00:00,
2013-10-02 05:05:00,49.5,-4.8,30.10,SW,225,0.7,1.1,6,0.00,,,0.00,WUHU216HW,2013-10-02 12:05:00,
2013-10-02 05:10:00,49.5,-4.8,30.11,SW,225,3.1,3.1,6,0.00,,,0.00,WUHU216HW,2013-10-02 12:10:00,
2013-10-02 05:15:00,49.5,-4.8,30.11,SW,225,0.4,3.6,7,0.00,,,0.00,WUHU216HW,2013-10-02 12:15:00,
2013-10-02 05:20:00,49.3,-5.0,30.11,SW,225,0.4,3.6,7,0.01,,,0.01,WUHU216HW,2013-10-02 12:20:00,
2013-10-02 05:25:00,49.3,-5.0,30.11,SW,225,0.0,2.7,7,0.01,,,0.01,WUHU216HW,2013-10-02 12:25:00,
2013-10-02 05:30:00,49.3,-5.0,30.11,SW,225,2.7,4.0,6,0.01,,,0.01,WUHU216HW,2013-10-02 12:30:00,
2013-10-02 05:35:00,49.3,-5.0,30.11,SSE,158,0.4,4.0,5,0.02,,,0.02,WUHU216HW,2013-10-02 12:35:00,
2013-10-02 05:40:00,49.3,-5.0,30.11,SSW,203,2.2,3.4,5,0.02,,,0.02,WUHU216HW,2013-10-02 12:40:00,
2013-10-02 05:45:00,49.1,-5.1,30.11,WSW,248,2.7,5.6,3,0.03,,,0.03,WUHU216HW,2013-10-02 12:45:00,
2013-10-02 05:50:00,49.1,-5.1,30.11,WSW,248,1.1,5.6,3,0.04,,,0.04,WUHU216HW,2013-10-02 12:50:00,
2013-10-02 05:55:00,49.1,-5.1,30.11,SSE,158,1.8,2.7,1,0.04,,,0.04,WUHU216HW,2013-10-02 12:55:00,
2013-10-02 06:00:00,49.1,-5.1,30.11,West,270,1.1,2.5,1,0.04,,,0.04,WUHU216HW,2013-10-02 13:00:00,
2013-10-02 06:05:00,49.0,-5.2,30.11,WSW,248,0.4,2.0,1,0.04,,,0.04,WUHU216HW,2013-10-02 13:05:00,
2013-10-02 06:10:00,49.0,-5.2,30.11,SW,225,2.5,2.5,1,0.05,,,0.05,WUHU216HW,2013-10-02 13:10:00,
2013-10-02 06:15:00,49.0,-5.2,30.11,SSW,203,0.2,2.5,1,0.05,,,0.05,WUHU216HW,2013-10-02 13:15:00,
2013-10-02 06:20:00,49.0,-5.2,30.10,SSW,203,2.7,2.7,1,0.05,,,0.06,WUHU216HW,2013-10-02 13:20:00,
2013-10-02 06:25:00,48.8,-5.4,30.11,SSW,203,3.1,3.1,1,0.05,,,0.06,WUHU216HW,2013-10-02 13:25:00,
2013-10-02 06:30:00,48.8,-5.4,30.10,SW,225,0.4,3.1,1,0.05,,,0.06,WUHU216HW,2013-10-02 13:30:00,
2013-10-02 06:35:00,48.8,-5.4,30.10,SW,225,1.6,3.1,1,0.04,,,0.06,WUHU216HW,2013-10-02 13:35:00,
2013-10-02 06:40:00,48.8,-5.4,30.10,SW,225,1.1,1.6,1,0.05,,,0.07,WUHU216HW,2013-10-02 13:40:00,
2013-10-02 06:45:00,48.6,-5.5,30.10,SW,225,0.4,1.8,1,0.04,,,0.07,WUHU216HW,2013-10-02 13:45:00,
2013-10-02 06:50:00,48.6,-5.5,30.10,SSE,158,2.2,2.2,1,0.03,,,0.07,WUHU216HW,2013-10-02 13:50:00,
2013-10-02 06:55:00,48.6,-5.5,30.10,NNW,338,0.7,2.2,1,0.04,,,0.08,WUHU216HW,2013-10-02 13:55:00,
2013-10-02 07:00:00,48.6,-5.5,30.09,SSE,158,1.1,2.2,1,0.04,,,0.08,WUHU216HW,2013-10-02 14:00:00,
2013-10-02 07:05:00,48.6,-5.5,30.10,WSW,248,0.4,2.5,1,0.04,,,0.08,WUHU216HW,2013-10-02 14:05:00,
2013-10-02 07:10:00,48.6,-5.5,30.10,SW,225,1.8,2.5,1,0.03,,,0.08,WUHU216HW,2013-10-02 14:10:00,
2013-10-02 07:15:00,48.6,-5.5,30.10,SW,225,0.4,2.7,1,0.03,,,0.08,WUHU216HW,2013-10-02 14:15:00,
2013-10-02 07:20:00,48.6,-5.5,30.10,West,270,0.4,2.7,1,0.02,,,0.08,WUHU216HW,2013-10-02 14:20:00,
2013-10-02 07:25:00,48.6,-5.5,30.10,SW,225,0.4,1.8,1,0.02,,,0.08,WUHU216HW,2013-10-02 14:25:00,
2013-10-02 07:30:00,48.6,-5.5,30.10,WSW,248,1.3,1.8,1,0.02,,,0.08,WUHU216HW,2013-10-02 14:30:00,
2013-10-02 07:35:00,48.6,-5.5,30.10,WSW,248,0.9,1.6,1,0.02,,,0.08,WUHU216HW,2013-10-02 14:35:00,
2013-10-02 07:40:00,48.4,-5.7,30.10,SW,225,0.9,1.6,1,0.01,,,0.08,WUHU216HW,2013-10-02 14:40:00,
2013-10-02 07:45:00,48.6,-5.5,30.10,SW,225,0.0,1.1,1,0.01,,,0.08,WUHU216HW,2013-10-02 14:45:00,
2013-10-02 07:50:00,48.6,-5.5,30.10,WSW,248,1.1,1.1,1,0.01,,,0.08,WUHU216HW,2013-10-02 14:50:00,
2013-10-02 07:55:00,48.6,-5.5,30.10,SW,225,0.9,1.8,1,0.00,,,0.08,WUHU216HW,2013-10-02 14:55:00,
2013-10-02 08:00:00,48.4,-5.7,30.10,SW,225,0.0,1.8,1,0.01,,,0.09,WUHU216HW,2013-10-02 15:00:00,
2013-10-02 08:05:00,48.4,-5.7,30.10,SW,225,0.0,0.9,1,0.01,,,0.09,WUHU216HW,2013-10-02 15:05:00,
2013-10-02 08:10:00,48.4,-5.7,30.10,SW,225,0.4,0.4,1,0.02,,,0.10,WUHU216HW,2013-10-02 15:10:00,
2013-10-02 08:15:00,48.6,-5.5,30.10,WSW,248,0.0,0.4,1,0.02,,,0.10,WUHU216HW,2013-10-02 15:15:00,
2013-10-02 08:20:00,48.6,-5.5,30.10,SW,225,2.0,2.2,1,0.02,,,0.10,WUHU216HW,2013-10-02 15:20:00,
2013-10-02 08:25:00,48.6,-5.5,30.10,SSW,203,0.4,2.2,1,0.03,,,0.11,WUHU216HW,2013-10-02 15:25:00,
2013-10-02 08:30:00,48.6,-5.5,30.10,SW,225,0.2,2.0,1,0.03,,,0.11,WUHU216HW,2013-10-02 15:30:00,
2013-10-02 08:33:00,48.6,-5.5,30.10,SW,225,0.0,1.8,1,0.03,,,0.11,WUHU216HW,2013-10-02 15:33:00,
2013-10-02 08:38:00,48.8,-5.4,30.10,SW,225,0.0,1.6,1,0.03,,,0.11,WUHU216HW,2013-10-02 15:38:00,
2013-10-02 08:43:00,48.8,-5.4,30.10,SW,225,0.9,1.6,1,0.03,,,0.11,WUHU216HW,2013-10-02 15:43:00,
2013-10-02 08:48:00,49.0,-5.2,30.10,SSW,203,1.8,1.8,1,0.03,,,0.11,WUHU216HW,2013-10-02 15:48:00,
2013-10-02 08:53:00,49.0,-5.2,30.11,SSW,203,1.6,2.2,1,0.03,,,0.11,WUHU216HW,2013-10-02 15:53:00,
2013-10-02 08:58:00,49.0,-5.2,30.11,SE,135,1.1,2.2,1,0.03,,,0.12,WUHU216HW,2013-10-02 15:58:00,
2013-10-02 09:03:00,49.0,-5.2,30.11,SE,135,1.1,1.8,1,0.03,,,0.12,WUHU216HW,2013-10-02 16:03:00,
2013-10-02 09:08:00,49.0,-5.2,30.10,SW,225,0.9,1.1,1,0.02,,,0.12,WUHU216HW,2013-10-02 16:08:00,
2013-10-02 09:13:00,49.0,-5.2,30.10,SW,225,0.4,1.1,1,0.02,,,0.12,WUHU216HW,2013-10-02 16:13:00,
2013-10-02 09:18:00,49.1,-5.1,30.10,SE,135,0.4,1.1,1,0.02,,,0.12,WUHU216HW,2013-10-02 16:18:00,
2013-10-02 09:23:00,49.1,-5.1,30.10,SSE,158,0.2,1.1,1,0.02,,,0.12,WUHU216HW,2013-10-02 16:23:00,
2013-10-02 09:28:00,49.1,-5.1,30.10,SSW,203,0.9,1.1,1,0.01,,,0.12,WUHU216HW,2013-10-02 16:28:00,
2013-10-02 09:33:00,49.1,-5.1,30.11,South,180,0.2,1.1,1,0.01,,,0.12,WUHU216HW,2013-10-02 16:33:00,
2013-10-02 09:38:00,49.1,-5.1,30.10,SW,225,0.2,1.3,1,0.02,,,0.13,WUHU216HW,2013-10-02 16:38:00,
2013-10-02 09:43:00,49.1,-5.1,30.10,SE,135,0.9,1.3,1,0.02,,,0.13,WUHU216HW,2013-10-02 16:43:00,
2013-10-02 09:47:00,49.3,-5.0,30.10,East,90,0.4,0.9,1,0.02,,,0.13,WUHU216HW,2013-10-02 16:47:00,
2013-10-02 09:52:00,49.3,-5.0,30.11,WSW,248,0.2,0.9,1,0.03,,,0.14,WUHU216HW,2013-10-02 16:52:00,
2013-10-02 09:57:00,49.3,-5.0,30.11,WSW,248,0.0,1.3,1,0.02,,,0.14,WUHU216HW,2013-10-02 16:57:00,
2013-10-02 10:02:00,49.3,-5.0,30.11,SW,225,1.1,1.3,1,0.02,,,0.14,WUHU216HW,2013-10-02 17:02:00,
2013-10-02 10:07:00,49.3,-5.0,30.10,SW,225,0.9,1.6,1,0.02,,,0.14,WUHU216HW,2013-10-02 17:07:00,
2013-10-02 10:12:00,49.3,-5.0,30.10,SW,225,0.2,1.6,1,0.02,,,0.14,WUHU216HW,2013-10-02 17:12:00,
2013-10-02 10:17:00,49.3,-5.0,30.10,SSW,203,2.5,2.5,1,0.02,,,0.14,WUHU216HW,2013-10-02 17:17:00,
2013-10-02 10:22:00,49.5,-4.8,30.11,SW,225,0.4,2.5,1,0.03,,,0.15,WUHU216HW,2013-10-02 17:22:00,
2013-10-02 10:27:00,49.5,-4.8,30.10,West,270,0.2,2.5,1,0.03,,,0.15,WUHU216HW,2013-10-02 17:27:00,
2013-10-02 10:32:00,49.7,-4.8,30.10,SE,135,0.4,1.1,1,0.03,,,0.15,WUHU216HW,2013-10-02 17:32:00,
2013-10-02 10:37:00,49.7,-4.8,30.10,West,270,0.2,1.1,1,0.02,,,0.15,WUHU216HW,2013-10-02 17:37:00,
2013-10-02 10:42:00,49.7,-4.8,30.10,SW,225,0.0,0.9,1,0.02,,,0.15,WUHU216HW,2013-10-02 17:42:00,
2013-10-02 10:47:00,49.9,-4.6,30.10,SE,135,0.0,2.0,1,0.02,,,0.15,WUHU216HW,2013-10-02 17:47:00,
2013-10-02 10:52:00,50.0,-4.5,30.10,SSW,203,0.4,2.0,1,0.01,,,0.15,WUHU216HW,2013-10-02 17:52:00,
2013-10-02 10:57:00,50.0,-4.5,30.10,WNW,293,0.2,1.6,1,0.02,,,0.16,WUHU216HW,2013-10-02 17:57:00,
2013-10-02 11:02:00,50.2,-4.3,30.10,SSE,158,0.0,0.7,1,0.02,,,0.16,WUHU216HW,2013-10-02 18:02:00,
2013-10-02 11:07:00,50.4,-4.2,30.10,ESE,113,0.7,1.1,1,0.02,,,0.16,WUHU216HW,2013-10-02 18:07:00,
2013-10-02 11:12:00,50.6,-4.0,30.10,SW,225,0.7,1.3,1,0.02,,,0.16,WUHU216HW,2013-10-02 18:12:00,
2013-10-02 11:17:00,50.6,-4.0,30.10,SE,135,0.2,1.3,1,0.02,,,0.16,WUHU216HW,2013-10-02 18:17:00,
2013-10-02 11:22:00,50.8,-4.0,30.10,South,180,0.9,1.1,1,0.01,,,0.16,WUHU216HW,2013-10-02 18:22:00,
2013-10-02 11:27:00,50.8,-4.0,30.10,SE,135,0.2,2.5,1,0.01,,,0.16,WUHU216HW,2013-10-02 18:27:00,
2013-10-02 11:32:00,50.8,-4.0,30.10,SW,225,0.2,2.5,1,0.01,,,0.16,WUHU216HW,2013-10-02 18:32:00,
2013-10-02 11:37:00,50.6,-4.0,30.10,WSW,248,1.1,1.1,1,0.01,,,0.16,WUHU216HW,2013-10-02 18:37:00,
2013-10-02 11:42:00,50.6,-4.0,30.10,SSE,158,0.7,1.1,1,0.02,,,0.17,WUHU216HW,2013-10-02 18:42:00,
2013-10-02 11:47:00,50.6,-4.0,30.10,WSW,248,0.0,1.1,1,0.02,,,0.17,WUHU216HW,2013-10-02 18:47:00,
2013-10-02 11:52:00,50.4,-4.2,30.10,SSE,158,0.9,1.1,1,0.02,,,0.17,WUHU216HW,2013-10-02 18:52:00,
2013-10-02 11:57:00,50.4,-4.2,30.10,SE,135,0.2,1.3,1,0.01,,,0.17,WUHU216HW,2013-10-02 18:57:00,
2013-10-02 12:02:00,50.6,-4.0,30.10,West,270,0.7,1.8,1,0.02,,,0.18,WUHU216HW,2013-10-02 19:02:00,
2013-10-02 12:07:00,50.6,-4.0,30.10,South,180,0.4,2.0,1,0.02,,,0.18,WUHU216HW,2013-10-02 19:07:00,
2013-10-02 12:12:00,50.6,-4.0,30.10,NE,45,0.4,2.0,1,0.02,,,0.18,WUHU216HW,2013-10-02 19:12:00,
2013-10-02 12:17:00,50.8,-4.0,30.10,SE,135,0.4,1.8,1,0.02,,,0.18,WUHU216HW,2013-10-02 19:17:00,
2013-10-02 12:22:00,50.6,-4.0,30.09,SE,135,0.4,1.8,1,0.02,,,0.18,WUHU216HW,2013-10-02 19:22:00,
2013-10-02 12:27:00,50.8,-4.0,30.10,WSW,248,0.9,2.5,1,0.02,,,0.18,WUHU216HW,2013-10-02 19:27:00,
2013-10-02 12:32:00,50.9,-3.8,30.10,SE,135,1.1,2.5,1,0.02,,,0.18,WUHU216HW,2013-10-02 19:32:00,
2013-10-02 12:37:00,51.1,-3.6,30.10,SSW,203,2.9,2.9,1,0.02,,,0.18,WUHU216HW,2013-10-02 19:37:00,
2013-10-02 12:42:00,51.1,-3.6,30.09,SSW,203,0.2,2.9,1,0.01,,,0.18,WUHU216HW,2013-10-02 19:42:00,
2013-10-02 12:47:00,51.1,-3.6,30.09,SW,225,0.4,2.9,1,0.01,,,0.18,WUHU216HW,2013-10-02 19:47:00,
2013-10-02 12:52:00,51.1,-3.6,30.09,SE,135,0.2,1.6,1,0.02,,,0.19,WUHU216HW,2013-10-02 19:52:00,
2013-10-02 12:57:00,51.3,-3.5,30.09,WSW,248,0.4,1.6,1,0.02,,,0.19,WUHU216HW,2013-10-02 19:57:00,
2013-10-02 13:02:00,51.1,-3.6,30.09,SE,135,0.7,1.6,1,0.01,,,0.19,WUHU216HW,2013-10-02 20:02:00,
2013-10-02 13:07:00,51.1,-3.6,30.09,SE,135,0.2,0.7,1,0.01,,,0.19,WUHU216HW,2013-10-02 20:07:00,
2013-10-02 13:12:00,51.3,-3.5,30.09,SW,225,0.2,2.2,1,0.01,,,0.19,WUHU216HW,2013-10-02 20:12:00,
2013-10-02 13:17:00,51.3,-3.5,30.09,ESE,113,1.1,2.2,1,0.01,,,0.19,WUHU216HW,2013-10-02 20:17:00,
2013-10-02 13:22:00,51.5,-3.3,30.08,SE,135,1.1,1.1,1,0.01,,,0.19,WUHU216HW,2013-10-02 20:22:00,
2013-10-02 13:27:00,51.5,-3.3,30.08,SW,225,1.1,1.3,1,0.01,,,0.19,WUHU216HW,2013-10-02 20:27:00,
2013-10-02 13:32:00,51.5,-3.3,30.08,WSW,248,0.7,1.3,1,0.01,,,0.19,WUHU216HW,2013-10-02 20:32:00,
2013-10-02 13:37:00,51.5,-3.3,30.08,SE,135,0.2,1.3,1,0.01,,,0.19,WUHU216HW,2013-10-02 20:37:00,
2013-10-02 13:42:00,51.5,-3.3,30.08,WNW,293,0.9,1.8,1,0.01,,,0.19,WUHU216HW,2013-10-02 20:42:00,
2013-10-02 13:47:00,51.5,-3.3,30.08,SSW,203,0.0,1.8,1,0.01,,,0.19,WUHU216HW,2013-10-02 20:47:00,
2013-10-02 13:52:00,51.5,-3.3,30.08,SSW,203,0.4,1.8,1,0.00,,,0.19,WUHU216HW,2013-10-02 20:52:00,
2013-10-02 13:57:00,51.5,-3.3,30.08,SSE,158,0.4,1.8,1,0.00,,,0.19,WUHU216HW,2013-10-02 20:57:00,
2013-10-02 14:02:00,51.7,-3.2,30.08,SE,135,1.1,2.0,1,0.00,,,0.19,WUHU216HW,2013-10-02 21:02:00,
2013-10-02 14:07:00,51.7,-3.2,30.07,SE,135,1.1,2.0,1,0.00,,,0.19,WUHU216HW,2013-10-02 21:07:00,
2013-10-02 14:12:00,51.8,-3.1,30.07,SW,225,0.4,1.3,1,0.00,,,0.19,WUHU216HW,2013-10-02 21:12:00,
2013-10-02 14:17:00,52.0,-2.9,30.07,SW,225,3.4,3.4,1,0.00,,,0.19,WUHU216HW,2013-10-02 21:17:00,
2013-10-02 14:22:00,52.2,-2.8,30.07,SE,135,0.7,3.4,1,0.00,,,0.19,WUHU216HW,2013-10-02 21:22:00,
2013-10-02 14:27:00,52.2,-2.8,30.07,SSE,158,0.0,3.4,1,0.00,,,0.19,WUHU216HW,2013-10-02 21:27:00,
2013-10-02 14:32:00,52.2,-2.8,30.07,West,270,1.3,5.1,1,0.00,,,0.19,WUHU216HW,2013-10-02 21:32:00,
2013-10-02 14:37:00,52.2,-2.8,30.07,SW,225,0.4,5.1,1,0.00,,,0.19,WUHU216HW,2013-10-02 21:37:00,
2013-10-02 14:42:00,52.4,-2.6,30.07,SE,135,0.4,2.2,1,0.00,,,0.19,WUHU216HW,2013-10-02 21:42:00,
2013-10-02 14:47:00,52.4,-2.6,30.07,East,90,0.4,2.2,1,0.00,,,0.19,WUHU216HW,2013-10-02 21:47:00,
2013-10-02 14:52:00,52.6,-2.5,30.07,SE,135,0.2,0.9,1,0.00,,,0.19,WUHU216HW,2013-10-02 21:52:00,
2013-10-02 14:57:00,52.7,-2.3,30.07,SW,225,4.0,4.0,1,0.00,,,0.19,WUHU216HW,2013-10-02 21:57:00,
2013-10-02 15:02:00,52.7,-2.3,30.07,SSW,203,0.2,4.0,1,0.00,,,0.19,WUHU216HW,2013-10-02 22:02:00,
2013-10-02 15:07:00,52.7,-2.3,30.07,SE,135,0.7,4.0,1,0.00,,,0.19,WUHU216HW,2013-10-02 22:07:00,
2013-10-02 15:12:00,52.9,-2.1,30.07,SE,135,0.4,1.1,1,0.00,,,0.19,WUHU216HW,2013-10-02 22:12:00,
2013-10-02 15:17:00,52.9,-2.1,30.07,SE,135,0.0,0.7,1,0.00,,,0.19,WUHU216HW,2013-10-02 22:17:00,
2013-10-02 15:22:00,52.9,-2.1,30.06,East,90,2.0,2.0,1,0.00,,,0.19,WUHU216HW,2013-10-02 22:22:00,
2013-10-02 15:27:00,52.9,-2.1,30.06,WNW,293,1.1,2.0,1,0.00,,,0.19,WUHU216HW,2013-10-02 22:27:00,
2013-10-02 15:32:00,52.9,-2.1,30.07,West,270,1.3,2.0,1,0.00,,,0.19,WUHU216HW,2013-10-02 22:32:00,
2013-10-02 15:37:00,52.9,-2.1,30.07,SSE,158,0.0,1.3,1,0.00,,,0.19,WUHU216HW,2013-10-02 22:37:00,
2013-10-02 15:42:00,52.9,-2.1,30.07,NE,45,0.0,1.3,1,0.00,,,0.19,WUHU216HW,2013-10-02 22:42:00,
2013-10-02 15:47:00,52.9,-2.1,30.07,SSW,203,0.4,0.9,1,0.00,,,0.19,WUHU216HW,2013-10-02 22:47:00,
2013-10-02 15:52:00,52.9,-2.1,30.07,WSW,248,1.6,1.6,1,0.00,,,0.19,WUHU216HW,2013-10-02 22:52:00,
2013-10-02 15:57:00,52.9,-2.1,30.07,SW,225,0.0,4.0,1,0.00,,,0.19,WUHU216HW,2013-10-02 22:57:00,
2013-10-02 16:02:00,52.9,-2.1,30.07,SW,225,2.0,4.0,1,0.00,,,0.19,WUHU216HW,2013-10-02 23:02:00,
2013-10-02 16:07:00,52.9,-2.1,30.07,WSW,248,0.7,2.0,1,0.00,,,0.19,WUHU216HW,2013-10-02 23:07:00,
2013-10-02 16:12:00,52.9,-2.1,30.07,SE,135,0.0,2.0,1,0.00,,,0.19,WUHU216HW,2013-10-02 23:12:00,
2013-10-02 16:17:00,52.9,-2.1,30.07,ESE,113,0.4,0.7,1,0.00,,,0.19,WUHU216HW,2013-10-02 23:17:00,
2013-10-02 16:22:00,52.9,-2.1,30.07,SSW,203,0.0,1.1,1,0.00,,,0.19,WUHU216HW,2013-10-02 23:22:00,
2013-10-02 16:27:00,52.9,-2.1,30.07,East,90,0.0,1.1,2,0.00,,,0.19,WUHU216HW,2013-10-02 23:27:00,
2013-10-02 16:32:00,52.9,-2.1,30.07,East,90,0.0,0.4,1,0.00,,,0.19,WUHU216HW,2013-10-02 23:32:00,
2013-10-02 16:37:00,52.9,-2.1,30.07,East,90,0.0,0.2,2,0.00,,,0.19,WUHU216HW,2013-10-02 23:37:00,
2013-10-02 16:42:00,52.9,-2.1,30.08,ENE,68,0.0,0.2,2,0.00,,,0.19,WUHU216HW,2013-10-02 23:42:00,
2013-10-02 16:47:00,52.9,-2.1,30.08,WSW,248,0.7,0.7,2,0.00,,,0.19,WUHU216HW,2013-10-02 23:47:00,
2013-10-02 16:49:00,52.9,-2.1,30.08,SSW,203,0.0,0.7,2,0.00,,,0.19,WUHU216HW,2013-10-02 23:49:00,
2013-10-02 16:54:00,52.7,-2.3,30.08,SSW,203,0.0,0.7,2,0.00,,,0.19,WUHU216HW,2013-10-02 23:54:00,
2013-10-02 16:59:00,52.6,-2.5,30.08,SSW,203,0.0,0.0,2,0.00,,,0.19,WUHU216HW,2013-10-02 23:59:00,
2013-10-02 17:04:00,52.6,-2.5,30.08,SSW,203,0.0,0.2,2,0.00,,,0.19,WUHU216HW,2013-10-03 00:04:00,
2013-10-02 17:09:00,52.6,-2.5,30.08,SSW,203,0.0,0.2,2,0.00,,,0.19,WUHU216HW,2013-10-03 00:09:00,
2013-10-02 17:14:00,52.6,-2.5,30.08,SSE,158,0.0,0.0,1,0.00,,,0.19,WUHU216HW,2013-10-03 00:14:00,
2013-10-02 17:19:00,52.4,-2.6,30.08,SSE,158,0.0,0.2,1,0.00,,,0.19,WUHU216HW,2013-10-03 00:19:00,
2013-10-02 17:24:00,52.4,-2.6,30.08,SW,225,0.4,0.4,1,0.00,,,0.19,WUHU216HW,2013-10-03 00:24:00,
2013-10-02 17:29:00,52.2,-2.8,30.08,WSW,248,1.6,1.8,1,0.00,,,0.19,WUHU216HW,2013-10-03 00:29:00,
2013-10-02 17:34:00,52.2,-2.8,30.08,SW,225,0.4,1.8,1,0.00,,,0.19,WUHU216HW,2013-10-03 00:34:00,
2013-10-02 17:39:00,52.2,-2.8,30.08,West,270,0.4,3.8,1,0.00,,,0.19,WUHU216HW,2013-10-03 00:39:00,
2013-10-02 17:44:00,52.2,-2.8,30.08,West,270,0.2,3.8,1,0.00,,,0.19,WUHU216HW,2013-10-03 00:44:00,
2013-10-02 17:49:00,52.0,-2.9,30.08,West,270,0.4,1.3,1,0.00,,,0.19,WUHU216HW,2013-10-03 00:49:00,
2013-10-02 17:54:00,52.0,-2.9,30.08,WSW,248,1.1,2.9,1,0.00,,,0.19,WUHU216HW,2013-10-03 00:54:00,
2013-10-02 17:59:00,52.0,-2.9,30.09,West,270,0.7,2.9,2,0.00,,,0.19,WUHU216HW,2013-10-03 00:59:00,
2013-10-02 18:04:00,51.8,-3.1,30.09,SW,225,0.0,1.8,2,0.00,,,0.19,WUHU216HW,2013-10-03 01:04:00,
2013-10-02 18:09:00,51.8,-3.1,30.09,SW,225,0.4,1.8,2,0.00,,,0.19,WUHU216HW,2013-10-03 01:09:00,
2013-10-02 18:14:00,51.8,-3.1,30.09,SW,225,0.4,1.3,2,0.00,,,0.19,WUHU216HW,2013-10-03 01:14:00,
2013-10-02 18:19:00,51.7,-3.2,30.09,WSW,248,0.7,1.1,2,0.00,,,0.19,WUHU216HW,2013-10-03 01:19:00,
2013-10-02 18:24:00,51.5,-3.3,30.09,West,270,0.7,1.1,2,0.00,,,0.19,WUHU216HW,2013-10-03 01:24:00,
2013-10-02 18:29:00,51.5,-3.3,30.10,West,270,0.2,1.8,2,0.00,,,0.19,WUHU216HW,2013-10-03 01:29:00,
2013-10-02 18:34:00,51.5,-3.3,30.10,WSW,248,1.1,1.8,3,0.00,,,0.19,WUHU216HW,2013-10-03 01:34:00,
2013-10-02 18:39:00,51.5,-3.3,30.10,WSW,248,2.0,2.0,3,0.00,,,0.19,WUHU216HW,2013-10-03 01:39:00,
2013-10-02 18:44:00,51.3,-3.5,30.10,SW,225,1.3,2.0,3,0.00,,,0.19,WUHU216HW,2013-10-03 01:44:00,
2013-10-02 18:49:00,51.3,-3.5,30.10,WSW,248,0.9,2.0,3,0.00,,,0.19,WUHU216HW,2013-10-03 01:49:00,
2013-10-02 18:54:00,51.1,-3.6,30.10,SW,225,2.0,2.0,3,0.00,,,0.19,WUHU216HW,2013-10-03 01:54:00,
2013-10-02 18:59:00,51.1,-3.6,30.10,WSW,248,1.8,2.0,2,0.00,,,0.19,WUHU216HW,2013-10-03 01:59:00,
2013-10-02 19:04:00,50.9,-3.8,30.11,SW,225,0.2,2.0,2,0.00,,,0.19,WUHU216HW,2013-10-03 02:04:00,
2013-10-02 19:05:00,50.9,-3.8,30.11,SW,225,0.2,2.0,2,0.00,,,0.19,WUHU216HW,2013-10-03 02:05:00,
2013-10-02 19:10:00,50.9,-3.8,30.11,WSW,248,0.7,1.6,2,0.00,,,0.19,WUHU216HW,2013-10-03 02:10:00,
2013-10-02 19:15:00,50.8,-4.0,30.11,SW,225,0.4,2.5,2,0.00,,,0.19,WUHU216HW,2013-10-03 02:15:00,
2013-10-02 19:20:00,50.8,-4.0,30.11,West,270,0.4,2.5,3,0.00,,,0.19,WUHU216HW,2013-10-03 02:20:00,
2013-10-02 19:25:00,50.6,-4.0,30.11,West,270,3.4,3.4,5,0.00,,,0.19,WUHU216HW,2013-10-03 02:25:00,
2013-10-02 19:30:00,50.4,-4.2,30.11,NNW,338,1.6,3.4,6,0.00,,,0.19,WUHU216HW,2013-10-03 02:30:00,
2013-10-02 19:35:00,50.2,-4.3,30.11,WSW,248,2.2,3.4,6,0.00,,,0.19,WUHU216HW,2013-10-03 02:35:00,
2013-10-02 19:40:00,50.0,-4.5,30.11,NE,45,0.4,2.2,8,0.00,,,0.19,WUHU216HW,2013-10-03 02:40:00,
2013-10-02 19:45:00,50.0,-3.0,30.11,West,270,0.7,2.2,11,0.00,,,0.19,WUHU216HW,2013-10-03 02:45:00,
2013-10-02 19:50:00,49.9,-3.1,30.11,SSW,203,0.7,1.1,11,0.00,,,0.19,WUHU216HW,2013-10-03 02:50:00,
2013-10-02 19:55:00,49.7,-1.7,30.12,West,270,0.9,1.8,12,0.00,,,0.19,WUHU216HW,2013-10-03 02:55:00,
2013-10-02 20:00:00,49.7,-1.7,30.12,SW,225,0.7,1.8,12,0.00,,,0.19,WUHU216HW,2013-10-03 03:00:00,
2013-10-02 20:05:00,49.5,-1.9,30.12,SW,225,0.4,1.6,12,0.00,,,0.19,WUHU216HW,2013-10-03 03:05:00,
2013-10-02 20:10:00,49.5,-1.9,30.12,SW,225,0.0,1.8,12,0.00,,,0.19,WUHU216HW,2013-10-03 03:10:00,
2013-10-02 20:15:00,49.5,-3.4,30.13,SW,225,0.2,1.8,11,0.00,,,0.19,WUHU216HW,2013-10-03 03:15:00,
2013-10-02 20:20:00,49.3,-5.0,30.13,SW,225,0.7,1.1,10,0.00,,,0.19,WUHU216HW,2013-10-03 03:20:00,
2013-10-02 20:25:00,49.3,-5.0,30.13,WSW,248,0.4,1.1,10,0.00,,,0.19,WUHU216HW,2013-10-03 03:25:00,
2013-10-02 20:30:00,49.3,-5.0,30.13,West,270,1.6,1.6,8,0.00,,,0.19,WUHU216HW,2013-10-03 03:30:00,
2013-10-02 20:35:00,49.3,-5.0,30.14,WSW,248,0.2,1.6,8,0.00,,,0.19,WUHU216HW,2013-10-03 03:35:00,
2013-10-02 20:40:00,49.1,-5.1,30.13,WNW,293,0.4,1.6,8,0.00,,,0.19,WUHU216HW,2013-10-03 03:40:00,
2013-10-02 20:45:00,49.1,-5.1,30.14,NW,315,0.0,0.4,8,0.00,,,0.19,WUHU216HW,2013-10-03 03:45:00,
2013-10-02 20:50:00,49.0,-5.2,30.14,NE,45,0.0,1.1,8,0.00,,,0.19,WUHU216HW,2013-10-03 03:50:00,
2013-10-02 20:55:00,49.0,-5.2,30.14,NE,45,0.0,1.1,8,0.00,,,0.19,WUHU216HW,2013-10-03 03:55:00,
2013-10-02 21:00:00,49.0,-5.2,30.14,East,90,0.4,0.7,7,0.01,,,0.20,WUHU216HW,2013-10-03 04:00:00,
2013-10-02 21:01:00,49.0,-5.2,30.14,East,90,0.0,0.7,7,0.01,,,0.20,WUHU216HW,2013-10-03 04:01:00,
2013-10-02 21:06:00,49.0,-5.2,30.14,East,90,0.0,0.7,6,0.01,,,0.20,WUHU216HW,2013-10-03 04:06:00,
2013-10-02 21:11:00,49.0,-5.2,30.15,East,90,0.0,0.4,6,0.01,,,0.20,WUHU216HW,2013-10-03 04:11:00,
2013-10-02 21:16:00,49.0,-5.2,30.14,SW,225,0.0,0.4,5,0.01,,,0.20,WUHU216HW,2013-10-03 04:16:00,
2013-10-02 21:21:00,49.0,-5.2,30.15,WSW,248,0.7,1.1,5,0.01,,,0.20,WUHU216HW,2013-10-03 04:21:00,
2013-10-02 21:26:00,49.0,-5.2,30.15,WSW,248,1.1,1.6,3,0.01,,,0.20,WUHU216HW,2013-10-03 04:26:00,
2013-10-02 21:31:00,49.0,-5.2,30.15,SW,225,1.1,1.6,3,0.01,,,0.20,WUHU216HW,2013-10-03 04:31:00,
2013-10-02 21:36:00,49.0,-5.2,30.16,SW,225,0.4,1.6,2,0.01,,,0.20,WUHU216HW,2013-10-03 04:36:00,
2013-10-02 21:41:00,49.0,-5.2,30.16,SW,225,1.6,1.6,1,0.01,,,0.20,WUHU216HW,2013-10-03 04:41:00,
2013-10-02 21:46:00,49.0,-5.2,30.16,SW,225,1.1,1.6,1,0.01,,,0.20,WUHU216HW,2013-10-03 04:46:00,
2013-10-02 21:51:00,49.0,-5.2,30.16,SW,225,0.0,1.6,1,0.01,,,0.20,WUHU216HW,2013-10-03 04:51:00,
2013-10-02 21:56:00,49.0,-5.2,30.16,SW,225,0.0,1.3,1,0.01,,,0.20,WUHU216HW,2013-10-03 04:56:00,
2013-10-02 22:01:00,48.8,-5.4,30.16,SW,225,0.2,0.4,1,0.00,,,0.20,WUHU216HW,2013-10-03 05:01:00,
2013-10-02 22:06:00,48.8,-5.4,30.16,SW,225,0.4,0.4,1,0.00,,,0.20,WUHU216HW,2013-10-03 05:06:00,
2013-10-02 22:11:00,48.8,-5.4,30.16,SW,225,0.9,0.9,1,0.00,,,0.20,WUHU216HW,2013-10-03 05:11:00,
2013-10-02 22:16:00,48.8,-5.4,30.16,SW,225,1.1,1.1,1,0.00,,,0.20,WUHU216HW,2013-10-03 05:16:00,
2013-10-02 22:21:00,48.8,-5.4,30.16,SW,225,0.0,1.1,1,0.00,,,0.20,WUHU216HW,2013-10-03 05:21:00,
2013-10-02 22:26:00,48.8,-5.4,30.16,SW,225,1.6,1.6,1,0.00,,,0.20,WUHU216HW,2013-10-03 05:26:00,
2013-10-02 22:31:00,48.8,-5.4,30.17,SW,225,1.1,1.6,1,0.00,,,0.20,WUHU216HW,2013-10-03 05:31:00,
2013-10-02 22:36:00,48.8,-5.4,30.17,SW,225,0.7,1.6,1,0.00,,,0.20,WUHU216HW,2013-10-03 05:36:00,
2013-10-02 22:41:00,48.8,-5.4,30.17,SW,225,0.2,1.8,1,0.00,,,0.20,WUHU216HW,2013-10-03 05:41:00,
2013-10-02 22:46:00,48.6,-5.5,30.17,SW,225,0.7,1.8,1,0.00,,,0.20,WUHU216HW,2013-10-03 05:46:00,
2013-10-02 22:51:00,48.6,-5.5,30.17,SW,225,0.7,1.8,1,0.00,,,0.20,WUHU216HW,2013-10-03 05:51:00,
2013-10-02 22:56:00,48.6,-5.5,30.17,SW,225,0.9,1.1,1,0.00,,,0.20,WUHU216HW,2013-10-03 05:56:00,
2013-10-02 23:01:00,48.6,-5.5,30.17,SW,225,0.2,1.6,1,0.00,,,0.20,WUHU216HW,2013-10-03 06:01:00,
2013-10-02 23:06:00,48.6,-5.5,30.18,SSW,203,0.0,1.6,1,0.00,,,0.20,WUHU216HW,2013-10-03 06:06:00,
2013-10-02 23:11:00,48.6,-5.5,30.18,WSW,248,0.7,1.1,1,0.00,,,0.20,WUHU216HW,2013-10-03 06:11:00,
2013-10-02 23:16:00,48.6,-5.5,30.18,SW,225,0.4,2.2,1,0.00,,,0.20,WUHU216HW,2013-10-03 06:16:00,
2013-10-02 23:21:00,48.6,-5.5,30.18,SW,225,0.4,2.2,1,0.00,,,0.20,WUHU216HW,2013-10-03 06:21:00,
2013-10-02 23:26:00,48.6,-5.5,30.19,WSW,248,1.6,2.2,1,0.00,,,0.20,WUHU216HW,2013-10-03 06:26:00,
2013-10-02 23:31:00,48.6,-5.5,30.19,SW,225,1.8,2.2,1,0.00,,,0.20,WUHU216HW,2013-10-03 06:31:00,
2013-10-02 23:36:00,48.6,-5.5,30.19,SW,225,2.5,2.5,1,0.00,,,0.20,WUHU216HW,2013-10-03 06:36:00,
2013-10-02 23:41:00,48.6,-5.5,30.19,SW,225,0.0,2.5,1,0.00,,,0.20,WUHU216HW,2013-10-03 06:41:00,
2013-10-02 23:46:00,48.6,-5.5,30.19,SW,225,1.8,2.5,1,0.00,,,0.20,WUHU216HW,2013-10-03 06:46:00,
2013-10-02 23:51:00,48.6,-5.5,30.19,SSW,203,2.0,2.5,1,0.00,,,0.20,WUHU216HW,2013-10-03 06:51:00,
2013-10-02 23:56:00,48.6,-5.5,30.19,WSW,248,1.1,2.5,1,0.00,,,0.20,WUHU216HW,2013-10-03 06:56:00,